This demonstration page uses our WeatherBlox Daily Observations layout. Learn more.

Left ArrowRight Arrow

Hourly Observations for August 15, 2018

Temp ( °F °C ) Dew Point ( °F °C ) Humidity (%) Winds ( mph kmh ) Pressure ( in mb ) Visibility ( mi km ) Precip ( " mm )
12:53 am 00:53 Clear with Smoke 73 22.8 53 11.7 50 50 Calm 29.81 1010 10 16 0.00 0.00
1:53 am 01:53 Mostly Cloudy with Smoke 71 21.7 54 12.2 55 55 Calm 29.83 1010 10 16 0.00 0.00
2:53 am 02:53 Clear with Smoke 69 20.6 54 12.2 59 59 N 5 7 29.83 1010 9 14 0.00 0.00
3:53 am 03:53 Clear with Smoke 69 20.6 49 9.4 49 49 NE 3 6 29.84 1010 10 16 0.00 0.00
4:53 am 04:53 Clear with Smoke 69 20.6 48 8.9 47 47 Calm 29.84 1011 10 16 0.00 0.00
5:53 am 05:53 Clear with Smoke 66 18.9 49 9.4 54 54 Calm 29.85 1011 10 16 0.00 0.00
6:53 am 06:53 Sunny 66 18.9 50 10 56 56 Calm 29.87 1012 10 16 0.00 0.00
7:53 am 07:53 Sunny 69 20.6 54 12.2 59 59 WSW 3 6 29.89 1012 10 16 0.00 0.00
8:53 am 08:53 Sunny 70 21.1 56 13.3 61 61 SSE 5 7 29.89 1012 10 16 0.00 0.00
9:53 am 09:53 Sunny with Smoke 74 23.3 55 12.8 52 52 Calm 29.89 1012 8 13 0.00 0.00
10:53 am 10:53 Sunny with Smoke 80 26.7 55 12.8 42 42 Calm 29.88 1012 9 14 0.00 0.00
11:53 am 11:53 Sunny with Smoke 85 29.4 56 13.3 37 37 Calm 29.87 1011 10 16 0.00 0.00
12:53 pm 12:53 Sunny with Smoke 90 32.2 54 12.2 29 29 S 6 9 29.85 1011 10 16 0.00 0.00
1:53 pm 13:53 Sunny with Smoke 93 33.9 48 8.9 21 21 VRB 3 6 29.83 1010 10 16 0.00 0.00
2:53 pm 14:53 Sunny 95 35 47 8.3 19 19 VRB 3 6 29.81 1010 10 16 0.00 0.00
3:53 pm 15:53 Sunny 98 36.7 41 5 14 14 SSE 9 15 29.79 1009 10 16 0.00 0.00
4:53 pm 16:53 Sunny 97 36.1 37 2.8 12 12 SSE 10 17 29.78 1009 10 16 0.00 0.00
5:53 pm 17:53 Sunny 97 36.1 38 3.3 13 13 S 12 19 29.78 1008 10 16 0.00 0.00
6:53 pm 18:53 Sunny 93 33.9 43 6.1 18 18 S 9 15 29.78 1009 10 16 0.00 0.00
7:53 pm 19:53 Sunny 87 30.6 54 12.2 32 32 SSE 6 9 29.80 1009 10 16 0.00 0.00
8:53 pm 20:53 Clear 84 28.9 55 12.8 37 37 SE 5 7 29.83 1010 10 16 0.00 0.00
9:53 pm 21:53 Clear 78 25.6 53 11.7 42 42 E 3 6 29.85 1011 10 16 0.00 0.00
10:53 pm 22:53 Clear 78 25.6 55 12.8 45 45 Calm 29.86 1011 10 16 0.00 0.00
11:53 pm 23:53 Mostly Clear 75 23.9 55 12.8 50 50 Calm 29.88 1012 10 16 0.00 0.00

Powered by AerisWeather